Flag for Bosnia-Herzegovina Weather past 2 weeks in Mostar, Bosnia-Herzegovina

Now
75 °F

Clear.


Feels Like: 77 °F
Forecast: 64 / 96 °F
Wind: 2 mph from North

Location: Mostar

Current Time: Sep 1, 2015 at 12:51:49 AM

Latest Report: Aug 31, 2015 at 11:00 PM


Visibility: 10 mi

Pressure: 29.95 "Hg

Humidity: 61%

Dew point: 61 °F

Location of MostarLocation

Historic Weather in Mostar — Graph

°F

Mostar temperature yesterday

Maximum temperature yesterday: 99 °F (at 3:00 PM)
Minimum temperature yesterday: 64 °F (at 5:00 AM)
Average temperature yesterday: 80 °F

Past Weeks' High & Low Weather Summary

 TemperatureHumidityPressure
High99 °F (Aug 29, 3:00 PM)100% (Aug 17, 7:00 AM)30.12 "Hg (Aug 17, 7:00 AM)
Low59 °F (Aug 24, 6:00 AM)22% (Aug 31, 3:00 PM)29.71 "Hg (Aug 16, 11:00 PM)
Average76 °F64%29.96 "Hg
* Reported Aug 16 11:00 PM — Aug 31 11:00 PM, Mostar, Weather by CustomWeather, © 2015

Note: Actual official high and low records may vary slightly from our data, if they occured in-between our weather recording intervals... More about our weather records

Advertising

Mostar weather history for previous 24 hours

 ConditionsComfort  
Time TempWeatherWind HumidityBarometerVisibility
11:00 PM
Mon, Aug 31
75 °FClear.2 mph61%29.95 "Hg10 mi
10:00 PM77 °FClear.2 mph57%29.95 "Hg10 mi
9:00 PM81 °FClear.5 mph48%29.95 "Hg10 mi
8:00 PM82 °FSunny.5 mph48%29.95 "Hg10 mi
7:00 PM90 °FSunny.7 mph36%29.95 "Hg10 mi
6:00 PM93 °FPassing clouds.7 mph28%29.95 "HgN/A
5:00 PM95 °FPassing clouds.7 mph28%29.95 "HgN/A
4:00 PM97 °FPassing clouds.7 mph27%29.95 "HgN/A
3:00 PM99 °FSunny.7 mph22%29.98 "Hg10 mi
2:00 PM97 °FPassing clouds.2 mph27%30.01 "HgN/A
1:30 PM95 °FPassing clouds.3 mph28%30.01 "HgN/A
1:00 PM93 °FPassing clouds.5 mph30%30.01 "HgN/A
12:30 PM91 °FPassing clouds.3 mph30%30.01 "HgN/A
12:00 PM90 °FSunny.2 mph38%30.04 "Hg10 mi
11:30 AM88 °FSunny.2 mph40%30.04 "Hg10 mi
11:00 AM84 °FSunny.2 mph45%30.04 "Hg10 mi
10:30 AM82 °FPassing clouds.3 mph45%30.07 "HgN/A
10:00 AM81 °FSunny.2 mph51%30.07 "Hg10 mi
9:30 AM79 °FSunny.2 mph51%30.07 "Hg10 mi
9:00 AM77 °FSunny.2 mph54%30.07 "Hg10 mi
8:30 AM73 °FSunny.1 mph61%30.07 "Hg10 mi
8:00 AM70 °FSunny.3 mph73%30.07 "Hg10 mi
7:30 AM66 °FSunny.3 mph78%30.07 "Hg10 mi
7:00 AM64 °FClear.2 mph83%30.07 "Hg10 mi
6:30 AM64 °FClear.2 mph78%30.07 "Hg10 mi
6:00 AM64 °FClear.1 mph83%30.04 "Hg10 mi
5:30 AM64 °FClear.1 mph78%30.04 "Hg10 mi
5:00 AM64 °FClear.5 mph83%30.04 "Hg10 mi
4:00 AM66 °FClear.3 mph78%30.07 "Hg10 mi
3:00 AM68 °FClear.2 mph73%30.07 "Hg10 mi
2:00 AM68 °FClear.3 mph73%30.07 "Hg10 mi
1:00 AM70 °FPassing clouds.3 mph69%30.07 "HgN/A
Weather by CustomWeather, © 2015

See weather overviewHow to use our weather pages